| time (UTC) | temp F | wind direction | speed knots | gust knots | rain 1hr in | rain 24hr in | rain mn in | humidity % | barometer mb |
| 20260507174305 | 64 | 58 | 4.3 | 10.4 | 0.00 | 0.01 | 0.01 | 70 | 1018.6 |
| 20260507173805 | 63 | 14 | 6.1 | 11.3 | 0.00 | 0.01 | 0.01 | 70 | 1019.1 |
| 20260507173305 | 63 | 358 | 4.3 | 12.2 | 0.00 | 0.01 | 0.01 | 72 | 1018.9 |
| 20260507171805 | 61 | 61 | 6.1 | 12.2 | 0.01 | 0.01 | 0.01 | 79 | 1019.1 |
| 20260507171305 | 60 | 9 | 6.1 | 11.3 | 0.01 | 0.01 | 0.01 | 80 | 1018.9 |
| 20260507170805 | 59 | 37 | 4.3 | 13.0 | 0.01 | 0.01 | 0.01 | 81 | 1018.3 |
| 20260507170305 | 58 | 55 | 5.2 | 11.3 | 0.01 | 0.01 | 0.01 | 82 | 1018.1 |
| 20260507164805 | 58 | 82 | 2.6 | 8.7 | 0.01 | 0.01 | 0.01 | 83 | 1017.9 |
| 20260507164305 | 57 | 36 | 7.8 | 15.6 | 0.01 | 0.01 | 0.01 | 82 | 1018.0 |
| 20260507163804 | 57 | 23 | 1.7 | 11.3 | 0.01 | 0.01 | 0.01 | 82 | 1018.8 |
| 20260507163305 | 57 | 331 | 6.1 | 13.0 | 0.01 | 0.01 | 0.01 | 82 | 1019.4 |
| 20260507161805 | 58 | 30 | 2.6 | 5.2 | 0.00 | 0.01 | 0.00 | 81 | 1019.3 |
| 20260507161306 | 58 | 0 | 3.5 | 8.7 | 0.00 | 0.04 | 0.00 | 81 | 1019.9 |
| 20260507160804 | 58 | 333 | 4.3 | 8.7 | 0.00 | 0.22 | 0.00 | 81 | 1020.7 |
| 20260507160305 | 57 | 30 | 0.9 | 7.0 | 0.00 | 0.35 | 0.00 | 81 | 1020.6 |
| 20260507154805 | 57 | 299 | 3.5 | 10.4 | 0.00 | 0.35 | 0.00 | 82 | 1019.8 |
| 20260507154305 | 57 | 12 | 4.3 | 11.3 | 0.00 | 0.35 | 0.00 | 82 | 1019.0 |
| 20260507153805 | 57 | 328 | 6.1 | 12.2 | 0.00 | 0.35 | 0.00 | 82 | 1019.2 |
| 20260507151305 | 57 | 335 | 2.6 | 7.0 | 0.00 | 0.35 | 0.00 | 82 | 1019.7 |
| 20260507150805 | 57 | 333 | 2.6 | 5.2 | 0.00 | 0.35 | 0.00 | 82 | 1020.2 |
| 20260507150305 | 57 | 355 | 2.6 | 8.7 | 0.00 | 0.35 | 0.00 | 82 | 1019.9 |
| 20260507144805 | 57 | 343 | 2.6 | 5.2 | 0.00 | 0.35 | 0.00 | 82 | 1019.9 |
| 20260507143805 | 56 | 336 | 2.6 | 4.3 | 0.00 | 0.35 | 0.00 | 82 | 1020.1 |
| 20260507143305 | 56 | 325 | 1.7 | 13.9 | 0.00 | 0.35 | 0.00 | 83 | 1019.8 |
| 20260507141805 | 56 | 349 | 7.0 | 13.9 | 0.00 | 0.35 | 0.00 | 83 | 1019.7 |
| 20260507141305 | 56 | 356 | 6.1 | 13.0 | 0.00 | 0.35 | 0.00 | 83 | 1019.6 |
| 20260507140805 | 56 | 343 | 5.2 | 10.4 | 0.00 | 0.35 | 0.00 | 83 | 1019.4 |
| 20260507134805 | 56 | 357 | 5.2 | 12.2 | 0.00 | 0.35 | 0.00 | 83 | 1019.3 |
| 20260507134305 | 56 | 4 | 6.1 | 12.2 | 0.00 | 0.35 | 0.00 | 83 | 1018.9 |
| 20260507133805 | 56 | 348 | 7.8 | 13.9 | 0.00 | 0.35 | 0.00 | 83 | 1018.9 |
| 20260507133305 | 56 | 3 | 7.8 | 13.9 | 0.00 | 0.35 | 0.00 | 83 | 1019.0 |
| 20260507131804 | 56 | 36 | 5.2 | 12.2 | 0.00 | 0.35 | 0.00 | 83 | 1018.6 |
| 20260507131305 | 56 | 346 | 3.5 | 10.4 | 0.00 | 0.35 | 0.00 | 83 | 1018.8 |
| 20260507130805 | 56 | 34 | 2.6 | 13.9 | 0.00 | 0.35 | 0.00 | 83 | 1018.7 |
| 20260507124305 | 56 | 0 | 6.1 | 11.3 | 0.00 | 0.35 | 0.00 | 83 | 1018.5 |
| 20260507123805 | 56 | 338 | 4.3 | 13.0 | 0.00 | 0.35 | 0.00 | 83 | 1018.6 |
| 20260507123305 | 56 | 347 | 6.1 | 13.0 | 0.00 | 0.35 | 0.00 | 83 | 1018.6 |
| 20260507121805 | 56 | 10 | 7.8 | 13.0 | 0.00 | 0.35 | 0.00 | 82 | 1018.5 |
| 20260507121305 | 56 | 344 | 5.2 | 13.9 | 0.00 | 0.35 | 0.00 | 82 | 1018.6 |
| 20260507120805 | 56 | 344 | 3.5 | 5.2 | 0.00 | 0.35 | 0.00 | 82 | 1018.5 |
| 20260507120304 | 56 | 8 | 5.2 | 14.8 | 0.00 | 0.35 | 0.00 | 82 | 1018.2 |
| 20260507114305 | 56 | 316 | 2.6 | 11.3 | 0.00 | 0.35 | 0.00 | 82 | 1017.6 |
| 20260507113305 | 57 | 346 | 5.2 | 13.0 | 0.00 | 0.35 | 0.00 | 82 | 1017.6 |
| 20260507111805 | 57 | 350 | 5.2 | 11.3 | 0.00 | 0.35 | 0.00 | 82 | 1017.6 |
| 20260507111305 | 57 | 338 | 6.1 | 11.3 | 0.00 | 0.35 | 0.00 | 82 | 1017.8 |
| 20260507110804 | 57 | 356 | 4.3 | 12.2 | 0.00 | 0.35 | 0.00 | 82 | 1017.8 |
| 20260507110305 | 57 | 1 | 7.0 | 14.8 | 0.00 | 0.35 | 0.00 | 82 | 1017.6 |
| 20260507104805 | 57 | 350 | 5.2 | 13.0 | 0.00 | 0.35 | 0.00 | 82 | 1017.6 |
| 20260507104305 | 57 | 16 | 6.1 | 12.2 | 0.00 | 0.35 | 0.00 | 82 | 1017.5 |
| 20260507103805 | 57 | 346 | 5.2 | 11.3 | 0.00 | 0.35 | 0.00 | 82 | 1017.5 |
| 20260507103305 | 57 | 359 | 6.1 | 12.2 | 0.00 | 0.35 | 0.00 | 82 | 1017.6 |
| 20260507101805 | 57 | 327 | 2.6 | 11.3 | 0.00 | 0.35 | 0.00 | 82 | 1016.8 |
| 20260507100305 | 57 | 345 | 4.3 | 8.7 | 0.00 | 0.35 | 0.00 | 82 | 1017.1 |
| 20260507094805 | 58 | 18 | 3.5 | 8.7 | 0.00 | 0.35 | 0.00 | 82 | 1017.1 |
| 20260507094305 | 58 | 358 | 2.6 | 7.0 | 0.00 | 0.35 | 0.00 | 82 | 1017.2 |
| 20260507093805 | 58 | 321 | 2.6 | 8.7 | 0.00 | 0.35 | 0.00 | 82 | 1017.3 |
| 20260507093305 | 58 | 7 | 5.2 | 12.2 | 0.00 | 0.35 | 0.00 | 82 | 1017.2 |
| 20260507091305 | 58 | 356 | 1.7 | 7.0 | 0.00 | 0.35 | 0.00 | 82 | 1016.8 |
| 20260507090805 | 58 | 0 | 1.7 | 4.3 | 0.00 | 0.35 | 0.00 | 82 | 1016.9 |
| 20260507090304 | 58 | 335 | 0.9 | 5.2 | 0.00 | 0.35 | 0.00 | 82 | 1016.9 |
| 20260507083805 | 58 | 348 | 1.7 | 4.3 | 0.00 | 0.35 | 0.00 | 81 | 1016.3 |
| 20260507081805 | 58 | 15 | 0.0 | 0.9 | 0.00 | 0.35 | 0.00 | 81 | 1016.3 |
| 20260507081305 | 58 | 15 | 0.9 | 1.7 | 0.00 | 0.35 | 0.00 | 81 | 1016.4 |
| 20260507080805 | 58 | 15 | 0.0 | 1.7 | 0.00 | 0.35 | 0.00 | 80 | 1016.4 |
| 20260507074304 | 58 | 34 | 0.0 | 2.6 | 0.00 | 0.35 | 0.00 | 79 | 1015.6 |
| 20260507073805 | 58 | 32 | 1.7 | 7.8 | 0.00 | 0.35 | 0.00 | 79 | 1015.8 |
| 20260507073305 | 58 | 24 | 0.9 | 4.3 | 0.00 | 0.35 | 0.00 | 79 | 1015.9 |
| 20260507071304 | 58 | 53 | 1.7 | 7.8 | 0.00 | 0.35 | 0.00 | 79 | 1015.5 |
| 20260507070805 | 58 | 30 | 0.9 | 10.4 | 0.00 | 0.35 | 0.00 | 79 | 1015.4 |
| 20260507070305 | 58 | 79 | 2.6 | 7.0 | 0.00 | 0.35 | 0.00 | 79 | 1015.6 |
| 20260507064805 | 59 | 28 | 2.6 | 7.8 | 0.00 | 0.35 | 0.00 | 80 | 1015.6 |
| 20260507063804 | 59 | 36 | 2.6 | 4.3 | 0.00 | 0.35 | 0.00 | 80 | 1015.8 |
| 20260507063305 | 59 | 358 | 1.7 | 7.0 | 0.00 | 0.35 | 0.00 | 80 | 1015.5 |
| 20260507061805 | 59 | 61 | 1.7 | 5.2 | 0.00 | 0.35 | 0.00 | 79 | 1015.7 |
| 20260507061304 | 59 | 18 | 0.9 | 2.6 | 0.00 | 0.35 | 0.00 | 79 | 1015.7 |
| 20260507060805 | 59 | 18 | 0.9 | 4.3 | 0.00 | 0.35 | 0.00 | 79 | 1015.5 |
| 20260507060305 | 59 | 352 | 0.9 | 4.3 | 0.00 | 0.35 | 0.00 | 79 | 1015.6 |
| 20260507054805 | 59 | 355 | 0.9 | 1.7 | 0.00 | 0.35 | 0.00 | 79 | 1015.8 |
| 20260507054305 | 59 | 355 | 0.9 | 4.3 | 0.00 | 0.35 | 0.00 | 79 | 1015.6 |
| 20260507053304 | 59 | 333 | 2.6 | 5.2 | 0.00 | 0.35 | 0.00 | 79 | 1015.5 |
| 20260507051805 | 59 | 355 | 2.6 | 7.0 | 0.00 | 0.35 | 0.00 | 79 | 1015.5 |
| 20260507051304 | 59 | 338 | 4.3 | 7.8 | 0.00 | 0.35 | 0.00 | 79 | 1015.4 |
| 20260507050804 | 60 | 330 | 0.9 | 7.0 | 0.00 | 0.35 | 0.00 | 79 | 1015.5 |
| 20260507044305 | 59 | 11 | 1.7 | 10.4 | 0.00 | 0.35 | 0.35 | 79 | 1015.1 |
| 20260507043805 | 60 | 341 | 1.7 | 7.8 | 0.00 | 0.35 | 0.35 | 80 | 1015.3 |
| 20260507043305 | 59 | 67 | 1.7 | 8.7 | 0.00 | 0.35 | 0.35 | 80 | 1015.6 |
| 20260507041804 | 60 | 336 | 2.6 | 7.8 | 0.00 | 0.35 | 0.35 | 80 | 1015.3 |
| 20260507041305 | 60 | 335 | 5.2 | 10.4 | 0.00 | 0.35 | 0.35 | 80 | 1015.4 |
| 20260507040305 | 60 | 6 | 0.9 | 5.2 | 0.00 | 0.35 | 0.35 | 80 | 1015.4 |
| 20260507034804 | 60 | 344 | 1.7 | 5.2 | 0.00 | 0.35 | 0.35 | 80 | 1015.5 |
| 20260507033305 | 60 | 5 | 1.7 | 8.7 | 0.00 | 0.35 | 0.35 | 80 | 1015.5 |
| 20260507031805 | 60 | 311 | 1.7 | 2.6 | 0.00 | 0.35 | 0.35 | 79 | 1015.1 |
| 20260507031304 | 60 | 14 | 2.6 | 7.8 | 0.00 | 0.35 | 0.35 | 80 | 1015.0 |
| 20260507030804 | 60 | 326 | 2.6 | 8.7 | 0.00 | 0.35 | 0.35 | 80 | 1015.0 |
| 20260507030304 | 60 | 345 | 5.2 | 12.2 | 0.00 | 0.35 | 0.35 | 80 | 1015.1 |
| 20260507024805 | 60 | 337 | 2.6 | 5.2 | 0.00 | 0.35 | 0.35 | 79 | 1015.0 |
| 20260507024305 | 60 | 343 | 1.7 | 5.2 | 0.00 | 0.35 | 0.35 | 79 | 1015.1 |
| 20260507023805 | 60 | 333 | 1.7 | 4.3 | 0.00 | 0.35 | 0.35 | 79 | 1015.3 |
| 20260507023305 | 60 | 331 | 2.6 | 5.2 | 0.00 | 0.35 | 0.35 | 79 | 1015.1 |
| 20260507021805 | 60 | 324 | 1.7 | 5.2 | 0.00 | 0.35 | 0.35 | 79 | 1014.7 |
| 20260507021305 | 61 | 350 | 2.6 | 5.2 | 0.00 | 0.35 | 0.35 | 79 | 1014.4 |
| 20260507020805 | 61 | 0 | 2.6 | 4.3 | 0.00 | 0.35 | 0.35 | 79 | 1014.2 |
| 20260507020304 | 61 | 345 | 4.3 | 10.4 | 0.00 | 0.35 | 0.35 | 79 | 1014.3 |
| 20260507014805 | 61 | 30 | 1.7 | 5.2 | 0.00 | 0.35 | 0.35 | 79 | 1014.1 |
| 20260507014304 | 61 | 312 | 4.3 | 7.8 | 0.00 | 0.35 | 0.35 | 79 | 1014.0 |
| 20260507013305 | 61 | 316 | 2.6 | 8.7 | 0.00 | 0.35 | 0.35 | 78 | 1013.9 |
| 20260507011804 | 61 | 19 | 2.6 | 5.2 | 0.00 | 0.35 | 0.35 | 78 | 1013.4 |
| 20260507011305 | 61 | 347 | 4.3 | 5.2 | 0.00 | 0.35 | 0.35 | 78 | 1013.1 |
| 20260507010804 | 61 | 351 | 2.6 | 8.7 | 0.00 | 0.35 | 0.35 | 78 | 1013.2 |
| 20260507010304 | 61 | 354 | 3.5 | 7.8 | 0.00 | 0.35 | 0.35 | 78 | 1013.2 |
| 20260507004305 | 61 | 347 | 2.6 | 5.2 | 0.00 | 0.35 | 0.35 | 78 | 1013.3 |
| 20260507003804 | 61 | 346 | 2.6 | 8.7 | 0.00 | 0.35 | 0.35 | 78 | 1013.1 |
| 20260507003305 | 61 | 354 | 4.3 | 8.7 | 0.00 | 0.35 | 0.35 | 78 | 1012.7 |
| 20260507000805 | 61 | 343 | 4.3 | 8.7 | 0.00 | 0.35 | 0.35 | 78 | 1012.8 |
| 20260507000306 | 61 | 348 | 1.7 | 11.3 | 0.00 | 0.35 | 0.35 | 78 | 1012.7 |
| 20260506234304 | 61 | 328 | 3.5 | 8.7 | 0.00 | 0.35 | 0.35 | 77 | 1012.7 |
| 20260506233805 | 61 | 1 | 4.3 | 12.2 | 0.00 | 0.35 | 0.35 | 77 | 1013.0 |
| 20260506231805 | 61 | 338 | 4.3 | 8.7 | 0.00 | 0.35 | 0.35 | 77 | 1012.5 |
| 20260506231305 | 61 | 0 | 7.0 | 13.0 | 0.00 | 0.35 | 0.35 | 77 | 1012.6 |
| 20260506230804 | 61 | 350 | 3.5 | 8.7 | 0.00 | 0.35 | 0.35 | 78 | 1012.5 |
| 20260506230305 | 61 | 339 | 3.5 | 10.4 | 0.00 | 0.35 | 0.35 | 77 | 1012.7 |
| 20260506224304 | 61 | 338 | 4.3 | 12.2 | 0.00 | 0.35 | 0.35 | 78 | 1012.7 |
| 20260506223804 | 61 | 348 | 6.1 | 10.4 | 0.00 | 0.35 | 0.35 | 78 | 1012.6 |
| 20260506221805 | 61 | 334 | 4.3 | 8.7 | 0.00 | 0.35 | 0.35 | 78 | 1012.5 |
| 20260506221304 | 60 | 335 | 7.8 | 13.9 | 0.00 | 0.35 | 0.35 | 78 | 1012.3 |
| 20260506220804 | 60 | 318 | 6.1 | 13.0 | 0.00 | 0.35 | 0.35 | 78 | 1012.4 |
| 20260506220305 | 60 | 341 | 5.2 | 11.3 | 0.00 | 0.35 | 0.35 | 78 | 1012.3 |
| 20260506214805 | 61 | 341 | 4.3 | 8.7 | 0.00 | 0.35 | 0.35 | 77 | 1012.6 |
| 20260506214304 | 61 | 321 | 5.2 | 13.0 | 0.00 | 0.35 | 0.35 | 77 | 1012.4 |
| 20260506213804 | 61 | 352 | 5.2 | 13.9 | 0.00 | 0.35 | 0.35 | 77 | 1012.3 |
| 20260506211805 | 61 | 343 | 10.4 | 17.4 | 0.00 | 0.35 | 0.35 | 76 | 1012.2 |
| 20260506211304 | 62 | 342 | 10.4 | 13.9 | 0.00 | 0.35 | 0.35 | 76 | 1012.3 |
| 20260506210804 | 62 | 357 | 7.8 | 12.2 | 0.00 | 0.35 | 0.35 | 77 | 1012.2 |
| 20260506204805 | 62 | 327 | 10.4 | 13.9 | 0.00 | 0.35 | 0.35 | 76 | 1012.6 |
| 20260506204304 | 62 | 346 | 6.1 | 13.0 | 0.00 | 0.35 | 0.35 | 77 | 1012.6 |
| 20260506203805 | 62 | 319 | 5.2 | 13.0 | 0.00 | 0.35 | 0.35 | 77 | 1012.5 |
| 20260506203304 | 62 | 348 | 5.2 | 13.0 | 0.00 | 0.35 | 0.35 | 76 | 1012.6 |
| 20260506201805 | 63 | 336 | 8.7 | 13.9 | 0.00 | 0.35 | 0.35 | 76 | 1012.6 |
| 20260506200804 | 64 | 349 | 7.8 | 12.2 | 0.00 | 0.35 | 0.35 | 75 | 1012.4 |
| 20260506200304 | 64 | 322 | 7.8 | 13.9 | 0.00 | 0.35 | 0.35 | 74 | 1012.3 |
| 20260506194804 | 65 | 328 | 8.7 | 12.2 | 0.00 | 0.35 | 0.35 | 75 | 1012.2 |
| 20260506194305 | 66 | 350 | 7.0 | 13.9 | 0.00 | 0.35 | 0.35 | 75 | 1012.1 |
| 20260506193304 | 67 | 340 | 7.8 | 13.0 | 0.00 | 0.35 | 0.35 | 75 | 1012.0 |
| 20260506191805 | 67 | 331 | 6.1 | 13.0 | 0.00 | 0.35 | 0.35 | 75 | 1012.0 |
| 20260506191305 | 67 | 345 | 6.1 | 13.9 | 0.00 | 0.35 | 0.35 | 75 | 1012.0 |
| 20260506190804 | 67 | 334 | 7.0 | 13.0 | 0.00 | 0.35 | 0.35 | 75 | 1012.1 |
| 20260506190304 | 68 | 331 | 6.1 | 13.9 | 0.00 | 0.35 | 0.35 | 75 | 1012.0 |
| 20260506184304 | 74 | 305 | 5.2 | 11.3 | 0.00 | 0.35 | 0.35 | 72 | 1011.8 |
| 20260506183804 | 75 | 296 | 1.7 | 11.3 | 0.00 | 0.35 | 0.35 | 72 | 1011.7 |
| 20260506183305 | 76 | 343 | 1.7 | 5.2 | 0.00 | 0.35 | 0.35 | 72 | 1011.6 |
| 20260506181804 | 77 | 306 | 4.3 | 5.2 | 0.00 | 0.35 | 0.35 | 70 | 1011.6 |
| 20260506181305 | 76 | 6 | 1.7 | 2.6 | 0.00 | 0.35 | 0.35 | 71 | 1011.5 |
| 20260506180805 | 76 | 15 | 1.7 | 7.0 | 0.00 | 0.35 | 0.35 | 74 | 1011.6 |
| 20260506180304 | 75 | 319 | 5.2 | 11.3 | 0.00 | 0.35 | 0.35 | 75 | 1011.6 |